GEFSMA_prec_meanprecacc_024.txt.gz
Total_Precipitation_Accumulation
0.05 0.11 0.13 0.14 0.12 0.12 0.18 0.21 0.14 0.13 0.10 0.07 0.05 0.04 0.05 0.05 0.07 0.21 0.27 0.27 0.25 0.34 0.58 0.83 1.00 1.04 0.89 0.73 0.66 0.65 0.63 0.51 0.40 0.24 0.15 0.12 0.10 0.07 0.03 0.00 0.00 0.00 0.00
0.12 0.17 0.16 0.18 0.14 0.12 0.20 0.23 0.17 0.18 0.10 0.06 0.03 0.01 0.01 0.02 0.03 0.07 0.11 0.17 0.29 0.42 0.50 0.64 0.85 0.93 0.86 0.71 0.60 0.58 0.62 0.60 0.52 0.34 0.22 0.17 0.15 0.11 0.04 0.01 0.00 0.00 0.00
0.15 0.18 0.19 0.18 0.18 0.17 0.25 0.24 0.19 0.17 0.10 0.06 0.03 0.01 0.01 0.02 0.03 0.06 0.11 0.18 0.25 0.32 0.37 0.41 0.59 0.76 0.77 0.68 0.56 0.59 0.63 0.69 0.71 0.52 0.33 0.25 0.22 0.18 0.10 0.04 0.01 0.00 0.00
0.12 0.20 0.18 0.16 0.19 0.20 0.24 0.27 0.20 0.17 0.16 0.10 0.06 0.02 0.01 0.02 0.03 0.06 0.12 0.20 0.20 0.14 0.23 0.34 0.39 0.49 0.61 0.69 0.68 0.76 0.84 0.85 0.89 0.73 0.49 0.35 0.29 0.26 0.19 0.11 0.05 0.01 0.00
0.12 0.24 0.23 0.21 0.14 0.23 0.20 0.16 0.17 0.19 0.20 0.17 0.05 0.06 0.02 0.01 0.01 0.02 0.06 0.11 0.11 0.12 0.14 0.23 0.41 0.41 0.53 0.74 0.85 0.93 1.06 1.14 1.09 0.94 0.68 0.50 0.41 0.34 0.27 0.18 0.09 0.03 0.00
0.17 0.27 0.27 0.28 0.21 0.28 0.29 0.22 0.24 0.24 0.21 0.17 0.04 0.05 0.02 0.00 0.00 0.01 0.03 0.06 0.10 0.10 0.10 0.14 0.18 0.22 0.31 0.48 0.67 0.83 1.02 1.29 1.37 1.14 0.99 0.85 0.69 0.54 0.41 0.26 0.13 0.05 0.01
0.23 0.34 0.30 0.39 0.33 0.33 0.41 0.31 0.33 0.29 0.25 0.22 0.14 0.10 0.02 0.00 0.00 0.00 0.00 0.01 0.03 0.10 0.13 0.22 0.29 0.33 0.31 0.37 0.39 0.52 0.79 1.18 1.42 1.36 1.37 1.31 1.13 0.88 0.61 0.39 0.18 0.07 0.02
0.26 0.29 0.41 0.42 0.37 0.38 0.47 0.44 0.36 0.27 0.25 0.28 0.25 0.18 0.11 0.10 0.07 0.01 0.00 0.00 0.02 0.06 0.10 0.19 0.31 0.40 0.34 0.32 0.39 0.42 0.68 1.02 1.26 1.47 1.73 1.85 1.71 1.24 0.80 0.48 0.23 0.11 0.05
0.32 0.33 0.37 0.45 0.41 0.40 0.48 0.54 0.42 0.36 0.37 0.37 0.39 0.30 0.24 0.23 0.13 0.02 0.01 0.00 0.01 0.03 0.03 0.06 0.10 0.10 0.10 0.22 0.46 0.47 0.53 0.65 0.81 1.24 1.73 2.12 2.00 1.38 0.88 0.55 0.32 0.16 0.08
0.36 0.37 0.38 0.43 0.44 0.43 0.44 0.44 0.46 0.51 0.44 0.36 0.41 0.43 0.40 0.31 0.20 0.11 0.05 0.02 0.02 0.03 0.06 0.05 0.05 0.03 0.03 0.15 0.33 0.35 0.30 0.23 0.27 0.58 1.09 1.41 1.44 1.12 0.81 0.57 0.32 0.16 0.08
0.36 0.36 0.38 0.44 0.48 0.50 0.47 0.49 0.54 0.53 0.44 0.37 0.36 0.35 0.37 0.35 0.26 0.20 0.16 0.11 0.05 0.01 0.04 0.03 0.03 0.03 0.05 0.13 0.22 0.21 0.12 0.08 0.11 0.21 0.39 0.60 0.75 0.72 0.58 0.44 0.25 0.13 0.07
0.33 0.32 0.33 0.41 0.46 0.46 0.45 0.46 0.49 0.48 0.42 0.39 0.35 0.32 0.31 0.28 0.30 0.28 0.23 0.21 0.15 0.02 0.01 0.00 0.01 0.04 0.09 0.12 0.08 0.07 0.06 0.05 0.05 0.07 0.15 0.22 0.30 0.35 0.34 0.26 0.16 0.09 0.04
0.45 0.41 0.36 0.33 0.31 0.29 0.33 0.38 0.40 0.43 0.41 0.41 0.36 0.32 0.29 0.25 0.30 0.30 0.24 0.21 0.23 0.10 0.08 0.02 0.01 0.01 0.03 0.06 0.04 0.04 0.04 0.03 0.03 0.03 0.05 0.07 0.10 0.14 0.15 0.11 0.09 0.06 0.03
0.46 0.37 0.30 0.25 0.22 0.23 0.26 0.34 0.43 0.42 0.45 0.44 0.39 0.33 0.27 0.25 0.28 0.31 0.31 0.33 0.32 0.31 0.32 0.21 0.04 0.01 0.01 0.02 0.02 0.02 0.02 0.02 0.02 0.02 0.02 0.03 0.04 0.05 0.05 0.05 0.03 0.02 0.01
0.26 0.22 0.20 0.19 0.18 0.19 0.21 0.25 0.36 0.35 0.35 0.39 0.48 0.41 0.30 0.30 0.33 0.34 0.40 0.44 0.43 0.44 0.52 0.46 0.19 0.05 0.02 0.03 0.02 0.01 0.01 0.01 0.01 0.01 0.01 0.01 0.01 0.01 0.02 0.01 0.00 0.00 0.00
0.10 0.10 0.11 0.11 0.10 0.11 0.13 0.16 0.24 0.33 0.31 0.34 0.46 0.40 0.34 0.35 0.39 0.41 0.46 0.48 0.53 0.58 0.58 0.55 0.38 0.15 0.09 0.04 0.02 0.02 0.02 0.01 0.00 0.00 0.00 0.00 0.00 0.00 0.00 0.00 0.00 0.00 0.00
0.02 0.02 0.03 0.04 0.04 0.05 0.05 0.06 0.10 0.21 0.24 0.24 0.31 0.31 0.33 0.37 0.41 0.44 0.46 0.47 0.59 0.71 0.72 0.74 0.62 0.42 0.26 0.13 0.05 0.04 0.02 0.01 0.00 0.00 0.00 0.00 0.00 0.00 0.00 0.00 0.00 0.00 0.00
0.00 0.01 0.01 0.02 0.02 0.02 0.02 0.02 0.02 0.06 0.13 0.19 0.27 0.36 0.41 0.49 0.49 0.44 0.46 0.50 0.64 0.77 0.86 1.00 1.04 0.79 0.52 0.25 0.16 0.09 0.03 0.01 0.01 0.01 0.00 0.00 0.00 0.00 0.00 0.00 0.00 0.00 0.00
0.00 0.00 0.00 0.00 0.00 0.00 0.01 0.01 0.02 0.03 0.08 0.13 0.24 0.35 0.40 0.41 0.43 0.44 0.49 0.54 0.59 0.68 0.76 0.88 1.01 0.84 0.65 0.38 0.32 0.23 0.12 0.11 0.05 0.04 0.01 0.00 0.00 0.00 0.00 0.00 0.00 0.00 0.00
0.00 0.00 0.00 0.00 0.00 0.00 0.01 0.02 0.02 0.03 0.06 0.10 0.15 0.22 0.27 0.28 0.33 0.36 0.39 0.47 0.53 0.53 0.55 0.62 0.74 0.78 0.81 0.70 0.60 0.50 0.39 0.29 0.19 0.10 0.09 0.03 0.02 0.01 0.01 0.01 0.00 0.01 0.00
0.00 0.00 0.00 0.00 0.00 0.00 0.00 0.01 0.02 0.03 0.05 0.07 0.09 0.10 0.10 0.12 0.15 0.19 0.24 0.33 0.40 0.47 0.51 0.55 0.65 0.73 0.78 0.78 0.69 0.64 0.52 0.45 0.35 0.28 0.30 0.19 0.15 0.13 0.08 0.04 0.03 0.02 0.01
0.00 0.00 0.00 0.00 0.00 0.00 0.00 0.01 0.01 0.01 0.02 0.03 0.05 0.05 0.04 0.04 0.05 0.08 0.10 0.13 0.18 0.28 0.42 0.55 0.64 0.73 0.72 0.65 0.72 0.67 0.61 0.59 0.53 0.44 0.48 0.45 0.42 0.38 0.28 0.17 0.11 0.07 0.04
0.02 0.01 0.01 0.01 0.00 0.00 0.00 0.00 0.00 0.00 0.00 0.00 0.01 0.02 0.01 0.00 0.01 0.03 0.06 0.11 0.11 0.11 0.15 0.35 0.48 0.51 0.48 0.40 0.53 0.67 0.61 0.58 0.58 0.43 0.46 0.54 0.55 0.53 0.41 0.33 0.23 0.12 0.08
0.04 0.03 0.03 0.03 0.02 0.00 0.00 0.00 0.00 0.00 0.00 0.00 0.00 0.00 0.00 0.00 0.00 0.00 0.03 0.07 0.05 0.03 0.05 0.13 0.16 0.16 0.18 0.22 0.29 0.43 0.52 0.46 0.44 0.41 0.42 0.54 0.56 0.60 0.51 0.39 0.27 0.15 0.10
0.07 0.04 0.04 0.06 0.05 0.01 0.00 0.00 0.00 0.00 0.00 0.00 0.00 0.00 0.00 0.00 0.00 0.00 0.03 0.06 0.02 0.01 0.01 0.02 0.03 0.06 0.08 0.10 0.14 0.21 0.30 0.41 0.54 0.48 0.37 0.51 0.54 0.60 0.69 0.54 0.35 0.20 0.12
0.10 0.06 0.06 0.05 0.06 0.03 0.00 0.00 0.00 0.00 0.00 0.00 0.00 0.00 0.00 0.00 0.00 0.00 0.01 0.03 0.03 0.01 0.01 0.00 0.00 0.00 0.01 0.03 0.05 0.07 0.12 0.23 0.38 0.40 0.27 0.30 0.42 0.57 0.69 0.57 0.36 0.22 0.15

GEFSMA_prec_meanprecacc_030.txt.gz
Total_Precipitation_Accumulation
0.05 0.11 0.13 0.15 0.12 0.13 0.19 0.22 0.15 0.15 0.12 0.09 0.07 0.08 0.08 0.06 0.08 0.21 0.28 0.27 0.26 0.35 0.60 0.85 1.03 1.07 0.93 0.77 0.69 0.67 0.66 0.54 0.44 0.30 0.23 0.21 0.17 0.15 0.09 0.04 0.01 0.00 0.00
0.12 0.17 0.16 0.18 0.14 0.13 0.20 0.23 0.17 0.19 0.12 0.08 0.05 0.03 0.03 0.03 0.03 0.07 0.11 0.17 0.30 0.43 0.51 0.67 0.89 0.98 0.91 0.75 0.63 0.61 0.65 0.64 0.57 0.40 0.30 0.26 0.24 0.20 0.15 0.08 0.03 0.01 0.00
0.15 0.18 0.19 0.18 0.19 0.18 0.26 0.25 0.20 0.19 0.12 0.08 0.06 0.04 0.03 0.04 0.04 0.07 0.12 0.20 0.25 0.33 0.39 0.45 0.65 0.81 0.81 0.71 0.59 0.61 0.66 0.71 0.75 0.58 0.40 0.34 0.32 0.29 0.23 0.16 0.07 0.03 0.01
0.12 0.21 0.18 0.16 0.19 0.21 0.25 0.28 0.22 0.19 0.19 0.12 0.07 0.04 0.03 0.04 0.05 0.07 0.14 0.21 0.21 0.14 0.25 0.38 0.44 0.52 0.63 0.71 0.70 0.78 0.86 0.87 0.91 0.77 0.55 0.43 0.39 0.37 0.32 0.24 0.14 0.06 0.02
0.12 0.24 0.23 0.21 0.15 0.24 0.21 0.17 0.19 0.22 0.24 0.19 0.06 0.07 0.04 0.05 0.06 0.07 0.09 0.13 0.13 0.13 0.15 0.24 0.42 0.43 0.55 0.75 0.87 0.95 1.08 1.16 1.12 0.97 0.73 0.58 0.53 0.47 0.40 0.32 0.23 0.12 0.05
0.19 0.29 0.28 0.29 0.22 0.29 0.30 0.24 0.26 0.27 0.24 0.19 0.05 0.06 0.04 0.03 0.04 0.07 0.08 0.09 0.12 0.12 0.11 0.14 0.18 0.23 0.32 0.49 0.68 0.84 1.04 1.32 1.39 1.17 1.03 0.94 0.83 0.68 0.53 0.40 0.28 0.18 0.10
0.27 0.38 0.32 0.41 0.34 0.35 0.43 0.35 0.37 0.33 0.29 0.26 0.19 0.12 0.03 0.01 0.03 0.06 0.09 0.10 0.09 0.13 0.15 0.23 0.30 0.33 0.31 0.37 0.40 0.52 0.80 1.20 1.45 1.39 1.41 1.39 1.28 1.05 0.73 0.52 0.32 0.20 0.13
0.30 0.34 0.45 0.46 0.41 0.42 0.52 0.48 0.40 0.30 0.28 0.33 0.32 0.24 0.14 0.11 0.11 0.11 0.15 0.14 0.14 0.13 0.15 0.22 0.33 0.41 0.34 0.32 0.39 0.42 0.68 1.03 1.28 1.50 1.77 1.91 1.83 1.39 0.93 0.62 0.38 0.25 0.18
0.35 0.37 0.41 0.49 0.45 0.45 0.52 0.58 0.46 0.39 0.41 0.44 0.50 0.42 0.32 0.28 0.16 0.07 0.07 0.11 0.17 0.18 0.15 0.13 0.13 0.11 0.11 0.22 0.46 0.47 0.53 0.66 0.83 1.28 1.78 2.19 2.10 1.48 0.99 0.70 0.50 0.31 0.21
0.39 0.40 0.41 0.47 0.48 0.47 0.48 0.48 0.51 0.57 0.51 0.45 0.53 0.58 0.54 0.43 0.30 0.15 0.07 0.07 0.12 0.16 0.19 0.15 0.10 0.04 0.04 0.15 0.33 0.36 0.30 0.23 0.27 0.59 1.13 1.49 1.53 1.19 0.90 0.72 0.52 0.34 0.23
0.38 0.38 0.40 0.47 0.52 0.54 0.51 0.53 0.58 0.57 0.50 0.44 0.45 0.47 0.52 0.52 0.44 0.34 0.22 0.15 0.09 0.07 0.10 0.09 0.07 0.05 0.05 0.14 0.22 0.21 0.12 0.08 0.11 0.21 0.41 0.67 0.84 0.81 0.71 0.65 0.52 0.35 0.23
0.36 0.35 0.36 0.44 0.50 0.50 0.48 0.50 0.53 0.53 0.48 0.47 0.44 0.44 0.45 0.44 0.50 0.50 0.36 0.28 0.19 0.05 0.04 0.05 0.05 0.07 0.11 0.14 0.10 0.08 0.06 0.05 0.05 0.08 0.15 0.26 0.38 0.46 0.50 0.53 0.47 0.33 0.21
0.48 0.44 0.39 0.37 0.35 0.33 0.38 0.43 0.45 0.49 0.49 0.51 0.47 0.45 0.46 0.42 0.51 0.52 0.40 0.32 0.29 0.13 0.11 0.07 0.06 0.06 0.07 0.10 0.07 0.07 0.05 0.03 0.03 0.04 0.05 0.09 0.16 0.24 0.31 0.36 0.35 0.29 0.21
0.47 0.39 0.31 0.27 0.25 0.28 0.32 0.41 0.51 0.50 0.55 0.56 0.52 0.47 0.42 0.40 0.46 0.49 0.48 0.47 0.40 0.36 0.37 0.26 0.08 0.05 0.06 0.08 0.08 0.05 0.02 0.02 0.02 0.02 0.03 0.05 0.08 0.14 0.18 0.23 0.26 0.21 0.16
0.26 0.22 0.21 0.21 0.21 0.23 0.25 0.30 0.42 0.41 0.43 0.48 0.58 0.51 0.40 0.39 0.43 0.46 0.54 0.60 0.53 0.48 0.56 0.51 0.24 0.09 0.07 0.07 0.06 0.03 0.02 0.01 0.01 0.01 0.01 0.03 0.04 0.06 0.10 0.12 0.14 0.11 0.08
0.10 0.10 0.11 0.11 0.11 0.12 0.14 0.18 0.26 0.36 0.34 0.38 0.50 0.45 0.40 0.40 0.45 0.48 0.55 0.61 0.66 0.65 0.63 0.61 0.45 0.22 0.14 0.12 0.07 0.04 0.03 0.01 0.00 0.00 0.00 0.01 0.02 0.03 0.04 0.05 0.06 0.05 0.03
0.02 0.02 0.03 0.04 0.05 0.05 0.05 0.06 0.11 0.21 0.25 0.25 0.33 0.33 0.35 0.40 0.44 0.47 0.50 0.53 0.67 0.80 0.77 0.83 0.73 0.54 0.36 0.23 0.14 0.08 0.04 0.01 0.00 0.00 0.00 0.00 0.01 0.01 0.01 0.02 0.02 0.01 0.01
0.00 0.01 0.01 0.02 0.02 0.02 0.02 0.02 0.03 0.06 0.13 0.19 0.28 0.36 0.42 0.49 0.50 0.45 0.47 0.53 0.68 0.85 0.93 1.08 1.17 0.91 0.62 0.37 0.27 0.15 0.07 0.03 0.01 0.01 0.01 0.00 0.00 0.00 0.00 0.00 0.00 0.00 0.00
0.00 0.00 0.00 0.00 0.00 0.00 0.01 0.01 0.02 0.03 0.08 0.13 0.24 0.36 0.40 0.41 0.44 0.44 0.49 0.54 0.61 0.72 0.82 0.96 1.14 0.97 0.76 0.51 0.48 0.34 0.18 0.14 0.07 0.06 0.03 0.01 0.00 0.00 0.00 0.00 0.00 0.00 0.00
0.00 0.00 0.00 0.00 0.00 0.00 0.01 0.02 0.02 0.04 0.06 0.10 0.16 0.23 0.27 0.28 0.33 0.36 0.39 0.47 0.53 0.56 0.61 0.70 0.85 0.93 0.95 0.86 0.77 0.62 0.48 0.35 0.23 0.12 0.11 0.05 0.03 0.02 0.01 0.01 0.00 0.01 0.00
0.00 0.00 0.00 0.00 0.00 0.00 0.00 0.01 0.02 0.03 0.05 0.07 0.09 0.11 0.10 0.12 0.15 0.19 0.24 0.33 0.41 0.48 0.54 0.62 0.76 0.90 0.99 1.00 0.89 0.84 0.69 0.58 0.41 0.32 0.36 0.24 0.19 0.15 0.09 0.04 0.03 0.03 0.02
0.01 0.00 0.00 0.00 0.00 0.00 0.00 0.01 0.01 0.01 0.02 0.03 0.05 0.05 0.04 0.04 0.05 0.08 0.10 0.13 0.19 0.29 0.44 0.60 0.74 0.90 0.95 0.92 1.01 0.95 0.85 0.77 0.64 0.51 0.54 0.55 0.52 0.46 0.33 0.19 0.12 0.07 0.05
0.03 0.02 0.01 0.01 0.01 0.00 0.00 0.00 0.00 0.00 0.00 0.00 0.01 0.02 0.01 0.00 0.01 0.03 0.06 0.11 0.11 0.11 0.16 0.38 0.54 0.61 0.62 0.59 0.77 0.95 0.87 0.79 0.75 0.56 0.55 0.64 0.68 0.66 0.48 0.37 0.25 0.13 0.09
0.04 0.04 0.03 0.03 0.02 0.00 0.00 0.00 0.00 0.00 0.00 0.00 0.00 0.00 0.00 0.00 0.00 0.01 0.03 0.08 0.05 0.03 0.06 0.14 0.18 0.19 0.24 0.33 0.45 0.66 0.79 0.71 0.65 0.56 0.53 0.64 0.67 0.69 0.60 0.44 0.29 0.17 0.11
0.07 0.04 0.04 0.06 0.05 0.01 0.00 0.00 0.00 0.00 0.00 0.00 0.00 0.00 0.00 0.00 0.00 0.00 0.04 0.07 0.03 0.01 0.01 0.02 0.03 0.06 0.10 0.13 0.19 0.30 0.44 0.61 0.74 0.66 0.51 0.62 0.67 0.72 0.80 0.64 0.41 0.23 0.14
0.10 0.06 0.06 0.05 0.06 0.03 0.00 0.00 0.00 0.00 0.00 0.00 0.00 0.00 0.00 0.00 0.00 0.00 0.02 0.04 0.03 0.02 0.01 0.01 0.01 0.01 0.02 0.03 0.06 0.10 0.18 0.32 0.50 0.53 0.38 0.40 0.54 0.75 0.88 0.73 0.48 0.30 0.20

GEFSMA_prec_meanprecacc_036.txt.gz
Total_Precipitation_Accumulation
0.05 0.11 0.13 0.15 0.12 0.14 0.19 0.22 0.15 0.15 0.12 0.09 0.07 0.08 0.08 0.07 0.09 0.22 0.28 0.27 0.26 0.36 0.63 0.92 1.09 1.13 0.98 0.81 0.72 0.71 0.69 0.57 0.48 0.36 0.30 0.28 0.27 0.26 0.20 0.11 0.04 0.01 0.00
0.12 0.17 0.16 0.18 0.15 0.13 0.21 0.23 0.18 0.20 0.12 0.08 0.06 0.03 0.04 0.04 0.04 0.07 0.12 0.18 0.31 0.45 0.54 0.72 0.95 1.05 0.98 0.81 0.67 0.64 0.68 0.67 0.60 0.44 0.35 0.33 0.34 0.34 0.29 0.19 0.08 0.03 0.02
0.15 0.18 0.19 0.18 0.19 0.19 0.26 0.25 0.21 0.21 0.13 0.09 0.06 0.05 0.05 0.05 0.04 0.08 0.13 0.20 0.25 0.33 0.41 0.50 0.71 0.87 0.87 0.77 0.63 0.65 0.69 0.74 0.78 0.61 0.44 0.38 0.38 0.39 0.36 0.28 0.16 0.07 0.03
0.14 0.22 0.20 0.18 0.21 0.22 0.25 0.28 0.22 0.21 0.20 0.13 0.08 0.04 0.04 0.04 0.05 0.08 0.15 0.22 0.21 0.15 0.26 0.41 0.49 0.58 0.69 0.77 0.75 0.82 0.90 0.91 0.94 0.80 0.58 0.46 0.44 0.45 0.41 0.35 0.25 0.12 0.06
0.16 0.29 0.29 0.27 0.19 0.27 0.23 0.19 0.21 0.24 0.25 0.21 0.07 0.08 0.04 0.05 0.06 0.07 0.10 0.14 0.13 0.13 0.15 0.25 0.44 0.46 0.60 0.81 0.92 1.00 1.13 1.21 1.16 1.01 0.76 0.62 0.59 0.55 0.49 0.42 0.33 0.18 0.09
0.26 0.38 0.37 0.38 0.29 0.35 0.35 0.28 0.30 0.29 0.25 0.20 0.06 0.06 0.04 0.03 0.04 0.07 0.08 0.10 0.12 0.12 0.11 0.16 0.20 0.25 0.34 0.53 0.73 0.89 1.09 1.37 1.43 1.21 1.07 0.98 0.89 0.78 0.61 0.47 0.36 0.25 0.16
0.37 0.49 0.45 0.55 0.47 0.44 0.50 0.40 0.42 0.35 0.30 0.28 0.19 0.13 0.03 0.01 0.03 0.06 0.09 0.10 0.10 0.14 0.17 0.26 0.32 0.36 0.34 0.38 0.41 0.55 0.84 1.24 1.49 1.42 1.44 1.42 1.33 1.13 0.80 0.58 0.38 0.27 0.21
0.45 0.51 0.64 0.65 0.58 0.54 0.60 0.56 0.47 0.33 0.30 0.35 0.34 0.24 0.14 0.11 0.11 0.11 0.15 0.14 0.14 0.15 0.16 0.26 0.37 0.44 0.36 0.34 0.39 0.42 0.69 1.05 1.31 1.53 1.80 1.94 1.87 1.44 0.99 0.70 0.45 0.32 0.27
0.58 0.60 0.64 0.70 0.63 0.58 0.60 0.66 0.53 0.43 0.42 0.46 0.53 0.45 0.34 0.29 0.17 0.07 0.07 0.11 0.18 0.20 0.17 0.17 0.17 0.15 0.13 0.24 0.47 0.48 0.54 0.66 0.83 1.29 1.81 2.22 2.14 1.50 1.02 0.76 0.58 0.40 0.31
0.64 0.64 0.64 0.67 0.65 0.59 0.55 0.54 0.55 0.60 0.53 0.47 0.56 0.62 0.60 0.47 0.32 0.15 0.07 0.07 0.12 0.17 0.20 0.17 0.12 0.06 0.06 0.16 0.34 0.36 0.30 0.23 0.27 0.60 1.14 1.51 1.57 1.22 0.93 0.78 0.63 0.46 0.32
0.69 0.67 0.65 0.67 0.67 0.64 0.56 0.56 0.61 0.60 0.52 0.46 0.47 0.49 0.55 0.56 0.49 0.37 0.23 0.15 0.10 0.07 0.10 0.10 0.08 0.06 0.07 0.15 0.23 0.22 0.13 0.08 0.11 0.21 0.41 0.68 0.86 0.84 0.74 0.72 0.67 0.52 0.37
0.70 0.66 0.64 0.65 0.63 0.58 0.53 0.52 0.55 0.55 0.50 0.48 0.45 0.45 0.47 0.47 0.54 0.54 0.38 0.29 0.20 0.05 0.04 0.05 0.06 0.08 0.12 0.15 0.11 0.10 0.08 0.06 0.05 0.08 0.16 0.26 0.39 0.49 0.56 0.64 0.66 0.54 0.40
0.78 0.69 0.57 0.48 0.42 0.38 0.41 0.45 0.47 0.51 0.51 0.52 0.48 0.47 0.49 0.46 0.56 0.57 0.44 0.33 0.30 0.13 0.11 0.07 0.07 0.07 0.08 0.12 0.09 0.09 0.07 0.04 0.04 0.04 0.06 0.09 0.18 0.28 0.38 0.50 0.56 0.51 0.42
0.74 0.59 0.45 0.36 0.30 0.30 0.34 0.42 0.52 0.51 0.57 0.57 0.53 0.50 0.45 0.45 0.52 0.56 0.56 0.53 0.43 0.37 0.38 0.27 0.09 0.05 0.07 0.10 0.10 0.07 0.03 0.03 0.02 0.02 0.03 0.05 0.09 0.16 0.23 0.34 0.44 0.45 0.39
0.43 0.34 0.29 0.25 0.23 0.24 0.26 0.30 0.42 0.41 0.43 0.48 0.58 0.52 0.42 0.41 0.47 0.52 0.62 0.68 0.60 0.53 0.58 0.52 0.25 0.10 0.07 0.09 0.09 0.05 0.03 0.02 0.01 0.01 0.01 0.04 0.05 0.09 0.16 0.23 0.30 0.33 0.29
0.20 0.16 0.14 0.12 0.12 0.12 0.14 0.18 0.26 0.36 0.34 0.38 0.50 0.46 0.41 0.42 0.47 0.51 0.58 0.66 0.72 0.71 0.65 0.63 0.46 0.23 0.16 0.14 0.11 0.07 0.04 0.02 0.00 0.00 0.00 0.01 0.04 0.06 0.09 0.14 0.19 0.22 0.21
0.08 0.05 0.05 0.05 0.05 0.05 0.05 0.06 0.11 0.21 0.25 0.25 0.33 0.33 0.35 0.40 0.44 0.47 0.51 0.54 0.69 0.82 0.79 0.84 0.74 0.55 0.37 0.25 0.17 0.12 0.07 0.02 0.00 0.00 0.00 0.01 0.02 0.04 0.07 0.10 0.14 0.17 0.17
0.02 0.02 0.02 0.02 0.02 0.02 0.02 0.02 0.03 0.06 0.13 0.19 0.28 0.36 0.42 0.50 0.50 0.45 0.47 0.53 0.69 0.85 0.94 1.09 1.18 0.92 0.64 0.40 0.31 0.20 0.11 0.05 0.02 0.02 0.01 0.01 0.02 0.02 0.04 0.07 0.10 0.13 0.13
0.00 0.00 0.00 0.00 0.00 0.00 0.01 0.01 0.02 0.03 0.08 0.13 0.24 0.36 0.40 0.41 0.44 0.44 0.49 0.54 0.61 0.72 0.83 0.97 1.14 0.98 0.78 0.54 0.52 0.39 0.24 0.18 0.09 0.07 0.03 0.01 0.01 0.01 0.02 0.03 0.05 0.07 0.07
0.00 0.00 0.00 0.00 0.00 0.00 0.01 0.02 0.02 0.04 0.06 0.10 0.16 0.23 0.27 0.28 0.33 0.36 0.39 0.47 0.53 0.56 0.61 0.70 0.86 0.94 0.96 0.89 0.82 0.70 0.57 0.42 0.28 0.15 0.13 0.05 0.03 0.02 0.02 0.02 0.02 0.03 0.03
0.00 0.00 0.00 0.00 0.00 0.00 0.00 0.01 0.02 0.03 0.05 0.07 0.09 0.11 0.10 0.12 0.15 0.19 0.24 0.33 0.41 0.49 0.55 0.62 0.76 0.90 1.00 1.04 0.96 0.94 0.82 0.69 0.50 0.40 0.41 0.27 0.21 0.16 0.09 0.04 0.03 0.03 0.03
0.01 0.00 0.00 0.00 0.00 0.00 0.00 0.01 0.01 0.01 0.02 0.03 0.05 0.05 0.04 0.04 0.05 0.08 0.10 0.13 0.19 0.29 0.44 0.61 0.74 0.91 0.96 0.95 1.07 1.05 0.98 0.91 0.78 0.66 0.66 0.65 0.58 0.49 0.35 0.20 0.13 0.07 0.05
0.03 0.02 0.01 0.01 0.01 0.00 0.00 0.00 0.00 0.00 0.00 0.00 0.01 0.02 0.01 0.00 0.01 0.03 0.06 0.11 0.11 0.11 0.16 0.38 0.54 0.62 0.63 0.62 0.82 1.02 0.97 0.93 0.95 0.82 0.77 0.83 0.83 0.75 0.54 0.41 0.27 0.14 0.10
0.04 0.04 0.03 0.03 0.02 0.00 0.00 0.00 0.00 0.00 0.00 0.00 0.00 0.00 0.00 0.00 0.00 0.01 0.03 0.08 0.05 0.03 0.06 0.14 0.18 0.19 0.24 0.34 0.49 0.74 0.92 0.86 0.86 0.84 0.85 0.95 0.93 0.91 0.75 0.54 0.36 0.20 0.13
0.07 0.04 0.04 0.06 0.05 0.01 0.00 0.00 0.00 0.00 0.00 0.00 0.00 0.00 0.00 0.00 0.00 0.00 0.04 0.07 0.03 0.01 0.01 0.02 0.04 0.06 0.10 0.13 0.21 0.35 0.55 0.81 1.01 0.99 0.86 0.97 0.97 0.97 1.01 0.80 0.53 0.31 0.19
0.10 0.06 0.06 0.05 0.06 0.03 0.00 0.00 0.00 0.00 0.00 0.00 0.00 0.00 0.00 0.00 0.00 0.00 0.02 0.04 0.03 0.02 0.01 0.01 0.01 0.01 0.02 0.04 0.07 0.12 0.24 0.45 0.71 0.84 0.80 0.86 0.98 1.14 1.20 0.95 0.63 0.42 0.27

GEFSMA_prec_meanprecacc_042.txt.gz
Total_Precipitation_Accumulation
0.05 0.11 0.13 0.16 0.13 0.15 0.22 0.28 0.20 0.19 0.15 0.11 0.08 0.08 0.09 0.09 0.12 0.26 0.31 0.29 0.28 0.39 0.70 1.00 1.17 1.19 1.04 0.85 0.76 0.74 0.72 0.61 0.53 0.39 0.32 0.31 0.30 0.30 0.26 0.16 0.09 0.05 0.02
0.12 0.17 0.16 0.20 0.17 0.15 0.24 0.28 0.22 0.24 0.15 0.11 0.07 0.04 0.05 0.06 0.06 0.10 0.13 0.19 0.32 0.46 0.57 0.79 1.02 1.11 1.04 0.85 0.70 0.66 0.70 0.69 0.63 0.46 0.37 0.35 0.36 0.37 0.34 0.25 0.15 0.08 0.04
0.16 0.19 0.20 0.20 0.22 0.22 0.31 0.31 0.26 0.26 0.17 0.11 0.08 0.06 0.06 0.06 0.05 0.08 0.13 0.20 0.26 0.33 0.42 0.53 0.76 0.92 0.92 0.82 0.67 0.68 0.71 0.76 0.79 0.62 0.45 0.39 0.40 0.42 0.38 0.33 0.23 0.12 0.06
0.16 0.26 0.23 0.22 0.28 0.28 0.31 0.37 0.31 0.28 0.28 0.19 0.12 0.06 0.04 0.05 0.05 0.08 0.15 0.22 0.21 0.15 0.26 0.42 0.52 0.61 0.73 0.82 0.80 0.86 0.93 0.92 0.96 0.81 0.59 0.48 0.46 0.47 0.44 0.38 0.29 0.17 0.08
0.20 0.37 0.36 0.37 0.30 0.38 0.35 0.28 0.29 0.35 0.34 0.28 0.11 0.10 0.04 0.05 0.06 0.07 0.10 0.14 0.13 0.14 0.15 0.25 0.45 0.48 0.63 0.86 0.98 1.06 1.18 1.23 1.17 1.02 0.78 0.64 0.61 0.58 0.51 0.45 0.37 0.21 0.11
0.34 0.48 0.48 0.52 0.45 0.53 0.53 0.45 0.46 0.42 0.35 0.29 0.09 0.08 0.04 0.03 0.04 0.07 0.08 0.10 0.12 0.12 0.11 0.16 0.21 0.26 0.35 0.54 0.77 0.95 1.17 1.43 1.47 1.23 1.09 1.00 0.91 0.80 0.62 0.49 0.38 0.28 0.19
0.50 0.64 0.58 0.76 0.74 0.72 0.77 0.64 0.60 0.51 0.44 0.40 0.26 0.16 0.04 0.01 0.03 0.06 0.10 0.11 0.10 0.14 0.17 0.26 0.33 0.39 0.37 0.41 0.45 0.58 0.90 1.33 1.55 1.45 1.46 1.44 1.35 1.14 0.81 0.59 0.40 0.29 0.23
0.66 0.71 0.88 0.94 0.91 0.88 0.92 0.84 0.68 0.51 0.44 0.48 0.43 0.29 0.16 0.12 0.11 0.11 0.16 0.15 0.15 0.15 0.17 0.26 0.39 0.48 0.41 0.38 0.47 0.47 0.71 1.11 1.38 1.58 1.82 1.96 1.88 1.45 1.00 0.71 0.46 0.34 0.29
0.85 0.89 0.95 1.03 0.95 0.88 0.89 0.91 0.75 0.60 0.57 0.57 0.62 0.52 0.38 0.31 0.17 0.07 0.08 0.12 0.19 0.21 0.18 0.17 0.18 0.16 0.15 0.27 0.53 0.55 0.58 0.69 0.86 1.32 1.84 2.24 2.14 1.51 1.02 0.77 0.60 0.43 0.33
0.94 0.97 0.97 1.01 0.99 0.91 0.83 0.78 0.75 0.77 0.67 0.58 0.65 0.69 0.66 0.52 0.37 0.17 0.08 0.08 0.14 0.19 0.22 0.18 0.12 0.06 0.06 0.18 0.37 0.40 0.35 0.27 0.30 0.62 1.16 1.53 1.58 1.23 0.94 0.79 0.66 0.50 0.36
1.03 1.00 0.99 1.07 1.08 1.01 0.90 0.87 0.85 0.77 0.65 0.56 0.56 0.57 0.62 0.65 0.58 0.44 0.26 0.18 0.13 0.10 0.12 0.11 0.09 0.07 0.08 0.16 0.26 0.23 0.15 0.11 0.14 0.23 0.43 0.69 0.87 0.85 0.75 0.74 0.70 0.58 0.43
1.07 1.01 0.99 1.02 1.03 0.93 0.82 0.75 0.74 0.70 0.60 0.56 0.52 0.51 0.53 0.54 0.63 0.63 0.43 0.33 0.23 0.08 0.07 0.07 0.08 0.10 0.15 0.18 0.13 0.11 0.09 0.07 0.07 0.10 0.16 0.27 0.40 0.50 0.57 0.67 0.71 0.63 0.51
1.15 1.08 0.97 0.83 0.77 0.70 0.68 0.69 0.65 0.64 0.59 0.58 0.54 0.52 0.54 0.52 0.62 0.64 0.50 0.37 0.32 0.14 0.13 0.09 0.09 0.09 0.10 0.16 0.12 0.10 0.07 0.05 0.05 0.05 0.07 0.11 0.19 0.28 0.40 0.53 0.62 0.63 0.57
1.19 1.03 0.83 0.72 0.65 0.62 0.60 0.61 0.66 0.61 0.62 0.61 0.56 0.53 0.48 0.48 0.55 0.60 0.61 0.57 0.45 0.38 0.39 0.28 0.11 0.08 0.09 0.12 0.12 0.08 0.04 0.04 0.03 0.04 0.05 0.06 0.10 0.16 0.24 0.36 0.49 0.55 0.55
0.97 0.87 0.74 0.66 0.58 0.53 0.47 0.45 0.52 0.47 0.47 0.51 0.60 0.54 0.44 0.44 0.50 0.55 0.65 0.72 0.64 0.54 0.59 0.53 0.27 0.11 0.09 0.10 0.10 0.06 0.04 0.04 0.03 0.03 0.03 0.04 0.06 0.09 0.16 0.24 0.33 0.41 0.44
0.78 0.68 0.59 0.51 0.40 0.32 0.28 0.27 0.33 0.40 0.36 0.40 0.52 0.47 0.42 0.43 0.48 0.52 0.59 0.68 0.76 0.75 0.67 0.64 0.48 0.24 0.17 0.15 0.12 0.08 0.06 0.04 0.03 0.02 0.02 0.02 0.04 0.06 0.11 0.17 0.24 0.30 0.34
0.60 0.53 0.43 0.32 0.22 0.15 0.12 0.11 0.14 0.23 0.26 0.26 0.34 0.34 0.36 0.41 0.45 0.48 0.52 0.54 0.70 0.85 0.81 0.84 0.74 0.56 0.39 0.28 0.21 0.16 0.10 0.05 0.04 0.03 0.02 0.02 0.03 0.05 0.09 0.13 0.20 0.26 0.30
0.38 0.31 0.25 0.19 0.14 0.09 0.07 0.04 0.04 0.07 0.14 0.20 0.28 0.37 0.42 0.50 0.51 0.46 0.48 0.54 0.70 0.87 0.95 1.10 1.19 0.94 0.67 0.45 0.37 0.25 0.14 0.08 0.06 0.05 0.03 0.02 0.02 0.03 0.06 0.10 0.17 0.25 0.30
0.25 0.20 0.15 0.10 0.07 0.05 0.04 0.03 0.03 0.04 0.08 0.14 0.24 0.36 0.41 0.42 0.44 0.45 0.50 0.55 0.62 0.73 0.84 0.98 1.16 1.00 0.82 0.60 0.58 0.45 0.29 0.24 0.13 0.10 0.06 0.03 0.02 0.02 0.04 0.08 0.14 0.21 0.27
0.16 0.12 0.09 0.06 0.04 0.03 0.03 0.03 0.03 0.04 0.07 0.10 0.16 0.23 0.28 0.28 0.33 0.37 0.39 0.47 0.54 0.56 0.61 0.71 0.87 0.95 0.99 0.93 0.87 0.75 0.63 0.50 0.37 0.22 0.18 0.08 0.05 0.03 0.04 0.06 0.10 0.17 0.23
0.11 0.07 0.04 0.03 0.02 0.01 0.01 0.02 0.02 0.03 0.05 0.08 0.10 0.11 0.10 0.12 0.15 0.19 0.24 0.33 0.41 0.49 0.55 0.63 0.77 0.91 1.01 1.06 0.99 0.98 0.87 0.78 0.62 0.53 0.53 0.35 0.25 0.18 0.11 0.08 0.09 0.14 0.20
0.09 0.05 0.03 0.01 0.01 0.00 0.00 0.01 0.01 0.01 0.02 0.03 0.05 0.05 0.04 0.04 0.05 0.08 0.10 0.13 0.19 0.29 0.44 0.61 0.75 0.92 0.98 0.96 1.09 1.07 1.03 0.99 0.91 0.82 0.83 0.80 0.70 0.57 0.40 0.23 0.17 0.14 0.14
0.07 0.04 0.02 0.01 0.01 0.00 0.00 0.00 0.00 0.00 0.00 0.00 0.01 0.02 0.01 0.00 0.01 0.03 0.06 0.11 0.11 0.11 0.16 0.38 0.55 0.63 0.64 0.63 0.83 1.03 1.01 1.00 1.07 1.01 0.99 1.05 1.01 0.90 0.65 0.48 0.33 0.19 0.16
0.08 0.06 0.05 0.04 0.02 0.00 0.00 0.00 0.00 0.00 0.00 0.00 0.00 0.00 0.00 0.00 0.00 0.01 0.03 0.08 0.05 0.04 0.06 0.14 0.18 0.20 0.25 0.34 0.49 0.75 0.95 0.93 0.99 1.02 1.05 1.21 1.18 1.13 0.94 0.71 0.49 0.28 0.19
0.09 0.05 0.05 0.06 0.05 0.01 0.00 0.00 0.00 0.00 0.00 0.00 0.00 0.00 0.00 0.00 0.00 0.00 0.04 0.07 0.04 0.01 0.01 0.02 0.04 0.06 0.10 0.13 0.21 0.36 0.58 0.87 1.13 1.16 1.06 1.22 1.29 1.31 1.33 1.06 0.76 0.52 0.33
0.12 0.07 0.06 0.06 0.06 0.03 0.00 0.00 0.00 0.00 0.01 0.00 0.00 0.00 0.00 0.00 0.00 0.00 0.02 0.04 0.03 0.02 0.02 0.02 0.02 0.02 0.04 0.05 0.07 0.14 0.26 0.49 0.79 0.96 0.97 1.10 1.32 1.54 1.66 1.38 0.98 0.71 0.54